• In Denmark
  • List of Countries
  • For 7 days
  • Water Temperature
  • Satellite Maps
  • Weather Map
  • Weather Widgets
  • user-avatar
    Login

    Hourly Weather Perth

    Today, 25 May, Friday

    Time Temperature Precipitation Wind Pressure Humidity
    00:00 +18°C° 1.5 mm 11 mps 747 mmHg 77%
    01:00 +18°C° 1.5 mm 11 mps 747 mmHg 75%
    02:00 +17°C° 1.5 mm 10 mps 748 mmHg 73%
    03:00 +17°C° 0.5 mm 10 mps 748 mmHg 73%
    04:00 +16°C° 0.5 mm 10 mps 748 mmHg 73%
    05:00 +15°C° 0.5 mm 9 mps 748 mmHg 73%
    06:00 +15°C° 0.8 mm 9 mps 749 mmHg 73%
    07:00 +15°C° 0.8 mm 9 mps 749 mmHg 73%
    08:00 +15°C° 0.8 mm 9 mps 749 mmHg 73%
    09:00 +14°C° 0.6 mm 10 mps 749 mmHg 70%
    10:00 +16°C° 0.6 mm 10 mps 750 mmHg 66%
    11:00 +17°C° 0.6 mm 10 mps 750 mmHg 63%
    12:00 +17°C° 0.5 mm 10 mps 749 mmHg 62%
    13:00 +17°C° 0.5 mm 10 mps 749 mmHg 62%
    14:00 +17°C° 0.5 mm 10 mps 749 mmHg 61%
    15:00 +17°C° 0.5 mm 10 mps 749 mmHg 65%
    16:00 +16°C° 0.5 mm 10 mps 749 mmHg 68%
    17:00 +16°C° 0.5 mm 10 mps 749 mmHg 72%
    18:00 +16°C° 0.6 mm 10 mps 749 mmHg 72%
    19:00 +14°C° 0.6 mm 10 mps 750 mmHg 72%
    20:00 +14°C° 0.6 mm 10 mps 750 mmHg 72%
    21:00 +14°C° 0.7 mm 10 mps 750 mmHg 73%
    22:00 +14°C° 0.7 mm 10 mps 750 mmHg 74%
    23:00 +14°C° 0.7 mm 10 mps 750 mmHg 76%

    Tomorrow, 26 May, Saturday

    Time Temperature Precipitation Wind Pressure Humidity
    00:00 +14°C° 0.7 mm 10 mps 750 mmHg 76%
    01:00 +14°C° 0.7 mm 10 mps 750 mmHg 77%
    02:00 +15°C° 0.7 mm 9 mps 750 mmHg 78%
    03:00 +16°C° 0.5 mm 9 mps 751 mmHg 78%
    04:00 +16°C° 0.5 mm 9 mps 751 mmHg 78%
    05:00 +16°C° 0.5 mm 9 mps 751 mmHg 78%
    06:00 +16°C° 0.4 mm 9 mps 752 mmHg 79%
    07:00 +16°C° 0.4 mm 9 mps 753 mmHg 79%
    08:00 +16°C° 0.4 mm 9 mps 753 mmHg 79%
    09:00 +16°C° 0.4 mm 9 mps 754 mmHg 78%
    10:00 +16°C° 0.4 mm 9 mps 755 mmHg 78%
    11:00 +17°C° 0.4 mm 9 mps 756 mmHg 77%
    12:00 +17°C° 0.2 mm 8 mps 756 mmHg 76%
    13:00 +17°C° 0.2 mm 8 mps 756 mmHg 75%
    14:00 +17°C° 0.2 mm 8 mps 756 mmHg 74%
    15:00 +16°C° 0.1 mm 7 mps 757 mmHg 74%
    16:00 +16°C° 0.1 mm 6 mps 757 mmHg 74%
    17:00 +16°C° 0.1 mm 6 mps 757 mmHg 74%
    18:00 +16°C° 0.1 mm 5 mps 758 mmHg 75%
    19:00 +16°C° 0.1 mm 5 mps 758 mmHg 76%
    20:00 +17°C° 0.1 mm 4 mps 759 mmHg 78%
    21:00 +17°C° 0.2 mm 4 mps 759 mmHg 80%
    22:00 +17°C° 0.2 mm 4 mps 759 mmHg 81%
    23:00 +16°C° 0.2 mm 5 mps 759 mmHg 83%

    Day after tomorrow, 27 May, Sunday

    Time Temperature Precipitation Wind Pressure Humidity
    00:00 +16°C° 0.2 mm 5 mps 759 mmHg 83%
    01:00 +16°C° 0.2 mm 5 mps 759 mmHg 84%
    02:00 +16°C° 0.2 mm 5 mps 759 mmHg 84%
    03:00 +16°C° 0.1 mm 5 mps 759 mmHg 84%
    04:00 +16°C° 0.1 mm 5 mps 759 mmHg 85%
    05:00 +16°C° 0.1 mm 5 mps 759 mmHg 86%
    06:00 +16°C° 0.2 mm 6 mps 759 mmHg 85%
    07:00 +16°C° 0.2 mm 6 mps 760 mmHg 85%
    08:00 +17°C° 0.2 mm 6 mps 760 mmHg 85%
    09:00 +17°C° 0.5 mm 6 mps 760 mmHg 81%
    10:00 +19°C° 0.5 mm 6 mps 761 mmHg 78%
    11:00 +20°C° 0.5 mm 7 mps 761 mmHg 74%
    12:00 +20°C° 0.3 mm 6 mps 761 mmHg 74%
    13:00 +20°C° 0.3 mm 6 mps 760 mmHg 73%
    14:00 +20°C° 0.3 mm 6 mps 760 mmHg 73%
    15:00 +19°C° 0.1 mm 5 mps 760 mmHg 74%
    16:00 +19°C° 0.1 mm 4 mps 761 mmHg 75%
    17:00 +18°C° 0.1 mm 4 mps 761 mmHg 75%
    18:00 +18°C° 0 mm 3 mps 761 mmHg 78%
    19:00 +17°C° 0 mm 3 mps 762 mmHg 81%
    20:00 +16°C° 0 mm 2 mps 762 mmHg 83%
    21:00 +16°C° 0.3 mm 3 mps 762 mmHg 85%
    22:00 +16°C° 0.3 mm 3 mps 762 mmHg 86%
    23:00 +16°C° 0.3 mm 3 mps 762 mmHg 87%

    28 May, Monday

    Time Temperature Precipitation Wind Pressure Humidity
    00:00 +15°C° 0.9 mm 4 mps 762 mmHg 87%
    01:00 +15°C° 0.9 mm 5 mps 762 mmHg 87%
    02:00 +16°C° 0.9 mm 6 mps 762 mmHg 87%
    03:00 +15°C° 0.3 mm 5 mps 762 mmHg 87%
    04:00 +15°C° 0.3 mm 5 mps 762 mmHg 87%
    05:00 +14°C° 0.3 mm 5 mps 763 mmHg 87%
    06:00 +14°C° 0 mm 4 mps 764 mmHg 86%
    07:00 +14°C° 0 mm 4 mps 764 mmHg 84%
    08:00 +13°C° 0 mm 4 mps 765 mmHg 83%
    09:00 +14°C° 0 mm 3 mps 765 mmHg 75%
    10:00 +16°C° 0 mm 3 mps 766 mmHg 67%
    11:00 +17°C° 0 mm 3 mps 766 mmHg 60%
    12:00 +18°C° 0 mm 3 mps 765 mmHg 56%
    13:00 +18°C° 0 mm 3 mps 765 mmHg 52%
    14:00 +19°C° 0 mm 3 mps 765 mmHg 49%
    15:00 +18°C° 0 mm 3 mps 765 mmHg 51%
    16:00 +17°C° 0 mm 3 mps 766 mmHg 53%
    17:00 +16°C° 0 mm 3 mps 766 mmHg 55%
    18:00 +14°C° 0 mm 3 mps 766 mmHg 58%
    19:00 +13°C° 0 mm 3 mps 767 mmHg 61%
    20:00 +12°C° 0 mm 3 mps 767 mmHg 64%
    21:00 +13°C° 0 mm 2 mps 768 mmHg 65%
    22:00 +12°C° 0 mm 2 mps 768 mmHg 67%
    23:00 +12°C° 0 mm 2 mps 768 mmHg 68%

    29 May, Tuesday

    Time Temperature Precipitation Wind Pressure Humidity
    00:00 +12°C° 0 mm 2 mps 768 mmHg 68%
    01:00 +10°C° 0 mm 3 mps 767 mmHg 67%
    02:00 +10°C° 0 mm 3 mps 767 mmHg 67%
    03:00 +10°C° 0 mm 3 mps 767 mmHg 67%
    04:00 +10°C° 0 mm 3 mps 767 mmHg 67%
    05:00 +10°C° 0 mm 3 mps 767 mmHg 67%
    06:00 +10°C° 0 mm 3 mps 768 mmHg 65%
    07:00 +10°C° 0 mm 3 mps 768 mmHg 64%
    08:00 +10°C° 0 mm 3 mps 768 mmHg 63%
    09:00 +12°C° 0 mm 3 mps 768 mmHg 55%
    10:00 +14°C° 0 mm 3 mps 768 mmHg 47%
    11:00 +18°C° 0 mm 3 mps 768 mmHg 40%
    12:00 +18°C° 0 mm 3 mps 767 mmHg 37%
    13:00 +19°C° 0 mm 2 mps 766 mmHg 34%
    14:00 +20°C° 0 mm 2 mps 766 mmHg 32%
    15:00 +19°C° 0 mm 2 mps 766 mmHg 35%
    16:00 +19°C° 0 mm 1 mps 766 mmHg 38%
    17:00 +18°C° 0 mm 1 mps 766 mmHg 41%
    18:00 +16°C° 0 mm 2 mps 766 mmHg 42%
    19:00 +15°C° 0 mm 2 mps 766 mmHg 43%
    20:00 +13°C° 0 mm 3 mps 766 mmHg 45%
    21:00 +13°C° 0 mm 3 mps 766 mmHg 45%
    22:00 +13°C° 0 mm 3 mps 765 mmHg 44%
    23:00 +12°C° 0 mm 3 mps 765 mmHg 44%

    30 May, Wednesday

    Time Temperature Precipitation Wind Pressure Humidity
    00:00 +13°C° 0 mm 4 mps 765 mmHg 44%
    01:00 +13°C° 0 mm 4 mps 764 mmHg 44%
    02:00 +13°C° 0 mm 4 mps 764 mmHg 43%
    03:00 +13°C° 0 mm 4 mps 763 mmHg 46%
    04:00 +13°C° 0 mm 5 mps 763 mmHg 49%
    05:00 +13°C° 0 mm 5 mps 763 mmHg 51%
    06:00 +14°C° 0 mm 5 mps 763 mmHg 53%
    07:00 +14°C° 0 mm 5 mps 763 mmHg 55%
    08:00 +14°C° 0 mm 5 mps 762 mmHg 58%
    09:00 +17°C° 0 mm 5 mps 762 mmHg 53%
    10:00 +20°C° 0 mm 6 mps 762 mmHg 49%
    11:00 +22°C° 0 mm 6 mps 761 mmHg 45%
    12:00 +23°C° 0 mm 6 mps 761 mmHg 42%
    13:00 +26°C° 0 mm 5 mps 760 mmHg 39%
    14:00 +27°C° 0 mm 5 mps 759 mmHg 37%
    15:00 +25°C° 0 mm 4 mps 759 mmHg 42%
    16:00 +24°C° 0 mm 3 mps 759 mmHg 47%
    17:00 +23°C° 0 mm 2 mps 759 mmHg 52%
    18:00 +21°C° 0.1 mm 2 mps 759 mmHg 58%
    19:00 +20°C° 0.1 mm 2 mps 759 mmHg 65%
    20:00 +18°C° 0.1 mm 2 mps 759 mmHg 71%
    21:00 +18°C° 0.1 mm 2 mps 759 mmHg 72%
    22:00 +18°C° 0.1 mm 3 mps 759 mmHg 74%
    23:00 +17°C° 0.1 mm 3 mps 759 mmHg 75%
    Show more